Volver al catálogo

LEMUR 2 MYNAMEISJEFF

ActivoCienciaSSO
NORAD 62712·PAYLOAD·🇺🇸 United States

Lanzado Jan 14, 2025 desde Vandenberg Space Force Base

Loading…

Próximos Pases (próximas 24 horas)

TLE

ActualizadoSource: Space-Track

Época: Sep 14, 2026, 11:36 UTC

1 62712U 25009DH  26257.48401674  .00005840  00000-0  41571-3 0  9998
2 62712  97.7250 340.5265 0001607 195.2903 164.8275 15.05015169 91059

Sigue LEMUR 2 MYNAMEISJEFF en tiempo real con AllMySat

Download on the App Store